Change the Weather History Date:

Sunday, June 23, 2013

  Actual Average Record
Temperature  
Mean Temperature 78 °F -  
Max Temperature 91 °F 91 °F 109 °F (2007)
Min Temperature 66 °F 65 °F 58 °F (2014)
Cooling Degree Days 14    
Growing Degree Days 28 (Base 50)    
Moisture  
Dew Point 68 °F    
Average Humidity 73    
Maximum Humidity 100    
Minimum Humidity 30    
Precipitation  
Precipitation 0.00 in 0.00 in - ()
Sea Level Pressure  
Sea Level Pressure 29.96 in    
Wind  
Wind Speed 6 mph ()    
Max Wind Speed 16 mph    
Max Gust Speed -    
Visibility 6.1 miles    
Events      
Averages and records for this station are not official NWS values.
T = Trace of Precipitation, MM = Missing Value Source: Averaged Metar Reports

Daily Weather History Graph

Daily Weather History Graph

Search for Another Location

Airport or City:

Trip Planner

Search our weather history database for the weather conditions in past years. The results will help you decide how hot, cold, wet, or windy it might be!

Date:

Astronomy

Jun. 23, 2013 Rise Set
Actual Time 5:40 AM CEST 8:24 PM CEST
Civil Twilight 5:09 AM CEST 8:55 PM CEST
Nautical Twilight 4:30 AM CEST 9:34 PM CEST
Astronomical Twilight 3:46 AM CEST 10:18 PM CEST
Moon 8:22 PM CEST (6/23) 5:36 AM CEST (6/23)
Length of Visible Light 15h 46m
Length of Day
14h 44m
Full, 100% of the Moon is Illuminated
Jun 23
Full
Jun 23
Full
Jun 30
Last Quarter
Jul 8
New
Jul 16
First Quarter

Hourly Weather History & Observations

Time (CEST) Temp. Heat Index Dew Point Humidity Pressure Visibility Wind Dir Wind Speed Gust Speed Precip Events Conditions
12:55 AM 71.6 °F - 71.6 °F 100% 29.98 in - WSW 4.6 mph - N/A   Clear
1:55 AM 71.6 °F - 71.6 °F 100% 29.98 in - WNW 4.6 mph - N/A   Clear
2:00 AM 72 °F - 71 °F 94% 29.99 in 10 mi WNW 4.6 mph - -  
2:55 AM 69.8 °F - 68.0 °F 94% 29.95 in 6.2 mi WNW 2.3 mph - N/A   Partly Cloudy
3:55 AM 68.0 °F - 68.0 °F 100% 29.95 in 6.2 mi ESE 2.3 mph - N/A   Scattered Clouds
4:55 AM 68.0 °F - 68.0 °F 100% 29.95 in 6.2 mi West 6.9 mph - N/A   Scattered Clouds
5:00 AM 69 °F - 68 °F 96% 29.97 in 9 mi West 6.9 mph - -   Scattered Clouds
5:55 AM 68.0 °F - 68.0 °F 100% 29.95 in 6.2 mi ESE 2.3 mph - N/A   Scattered Clouds
6:55 AM 69.8 °F - 69.8 °F 100% 29.95 in 6.2 mi ESE 2.3 mph - N/A   Scattered Clouds
7:55 AM 75.2 °F - 68.0 °F 78% 29.98 in 6.2 mi East 4.6 mph - N/A   Scattered Clouds
8:00 AM 74 °F - 68 °F 76% 29.98 in 6 mi East 4.6 mph - -   Partly Cloudy
8:55 AM 78.8 °F - 69.8 °F 74% 29.98 in 5.0 mi SW 2.3 mph - N/A   Scattered Clouds
9:55 AM 82.4 °F 85.4 °F 68.0 °F 62% 29.98 in 5.0 mi SE 3.5 mph - N/A   Scattered Clouds
10:55 AM 86.0 °F 87.3 °F 64.4 °F 48% 29.98 in 5.0 mi ESE 2.3 mph - N/A   Scattered Clouds
11:00 AM 86 °F - 65 °F 40% 29.99 in 5 mi ESE 2.3 mph - -   Mist
11:55 AM 91.4 °F 93.2 °F 64.4 °F 41% 29.98 in 5.0 mi ESE 6.9 mph - N/A   Scattered Clouds
12:55 PM 91.4 °F 93.2 °F 64.4 °F 41% 29.98 in 5.0 mi ESE 10.4 mph - N/A   Scattered Clouds
1:55 PM 91.4 °F 93.2 °F 64.4 °F 41% 29.95 in 5.0 mi East 13.8 mph - N/A   Scattered Clouds
2:00 PM 91 °F - 64 °F 30% 29.97 in 5 mi East 13.8 mph - -   Mist
2:55 PM 89.6 °F 90.1 °F 62.6 °F 40% 29.95 in 5.0 mi East 16.1 mph - N/A   Scattered Clouds
3:55 PM 89.6 °F 90.1 °F 62.6 °F 40% 29.95 in 6.2 mi East 12.7 mph - N/A   Scattered Clouds
4:55 PM 87.8 °F 89.4 °F 64.4 °F 46% 29.92 in 6.2 mi ESE 11.5 mph - N/A   Scattered Clouds
5:00 PM 88 °F - 64 °F 35% 29.94 in 6 mi ESE 11.5 mph - -   Scattered Clouds
5:55 PM 87.8 °F 87.1 °F 59.0 °F 38% 29.92 in 6.2 mi East 12.7 mph - N/A   Scattered Clouds
6:55 PM 80.6 °F 82.7 °F 66.2 °F 61% 29.92 in 6.2 mi East 13.8 mph - N/A   Scattered Clouds
7:55 PM 77.0 °F - 71.6 °F 83% 29.92 in 6.2 mi ESE 12.7 mph - N/A   Scattered Clouds
8:00 PM 77 °F - 72 °F 81% 29.93 in 6 mi ESE 12.7 mph - -   Partly Cloudy
8:55 PM 75.2 °F - 73.4 °F 94% 29.95 in 6.2 mi SE 9.2 mph - N/A   Partly Cloudy
9:55 PM 73.4 °F - 73.4 °F 100% 29.95 in 6.2 mi SSE 4.6 mph - N/A   Partly Cloudy
10:55 PM 71.6 °F - 71.6 °F 100% 29.95 in - SSE 3.5 mph - N/A   Clear
11:00 PM 72 °F - 71 °F 97% 29.96 in 8 mi SSE 3.5 mph - -  
11:55 PM 71.6 °F - 71.6 °F 100% 29.95 in - Calm Calm - N/A   Clear